PDT,Max TemperatureF,Mean TemperatureF,Min TemperatureF,Max Dew PointF,MeanDew PointF,Min DewpointF,Max Humidity, Mean Humidity, Min Humidity, Max Sea Level PressureIn, Mean Sea Level PressureIn, Min Sea Level PressureIn, Max VisibilityMiles, Mean VisibilityMiles, Min VisibilityMiles, Max Wind SpeedMPH, Mean Wind SpeedMPH, Max Gust SpeedMPH,PrecipitationIn, CloudCover, Events, WindDirDegrees
2012-10-1,77,60,44,59,49,43,94,71,36,30.35,30.25,30.14,10,8,5,9,3,,0.00,0,,338
2012-10-2,66,56,46,50,46,37,100,72,49,30.26,30.20,30.16,10,8,5,13,3,17,0.00,1,,357
2012-10-3,68,57,46,39,36,28,76,51,28,30.36,30.29,30.24,10,7,5,17,7,22,0.00,0,,13
2012-10-4,68,52,35,39,35,32,100,57,26,30.27,30.24,30.21,10,8,5,15,5,21,0.00,0,,20
2012-10-5,71,52,32,41,35,30,100,61,23,30.29,30.24,30.17,10,8,4,13,3,20,0.00,0,,17
2012-10-6,73,52,32,39,33,27,100,62,19,30.24,30.18,30.10,10,8,1,12,2,,0.00,0,,15
2012-10-7,77,54,32,41,36,32,100,67,21,30.11,30.03,29.93,10,8,4,7,1,,0.00,0,,354
2012-10-8,71,52,33,48,40,32,100,76,35,30.08,29.99,29.95,10,8,4,10,3,,0.00,0,,243
2012-10-9,64,52,39,48,44,39,100,85,52,30.16,30.10,30.04,10,6,1,7,1,,0.00,0,,262
2012-10-10,59,49,39,48,45,39,100,89,63,30.07,30.03,29.98,10,5,0,10,2,,0.00,3,Fog,5
2012-10-11,64,54,44,50,47,45,100,81,55,30.01,29.93,29.82,10,5,2,7,2,,0.00,0,,28
2012-10-12,55,52,48,50,49,46,100,91,82,30.05,29.93,29.87,10,6,1,17,7,25,0.02,1,Rain,181
2012-10-13,60,56,53,57,55,50,94,92,82,30.18,30.14,30.06,10,6,2,16,11,24,0.15,,Rain,176
2012-10-14,62,60,59,59,57,55,100,90,82,30.13,30.00,29.91,10,8,3,16,11,24,0.43,,Rain,182
2012-10-15,62,55,48,61,57,48,100,95,88,29.98,29.81,29.64,10,6,0,14,4,22,0.51,,Fog-Rain,197
2012-10-16,59,50,41,54,47,41,100,83,63,30.32,30.07,29.70,10,8,3,12,6,18,0.12,,Rain,239
2012-10-17,59,49,39,48,43,39,100,89,59,30.35,30.29,30.23,10,4,0,7,3,,0.00,,Fog,238
2012-10-18,66,52,37,55,44,37,100,81,49,30.24,30.05,29.86,10,5,0,15,2,21,0.17,,Fog-Rain,195
2012-10-19,57,52,48,55,52,45,100,90,77,29.89,29.85,29.80,10,7,1,13,8,20,0.08,,Rain,211
2012-10-20,53,47,41,46,42,39,100,87,62,29.96,29.92,29.88,10,8,1,12,5,16,0.08,,Rain,192
2012-10-21,51,45,39,43,40,37,100,86,62,29.90,29.87,29.77,10,9,3,12,6,16,0.05,,Rain,186
2012-10-22,46,42,39,45,41,37,100,93,81,29.75,29.63,29.59,10,7,3,10,4,,0.05,,Rain,100
2012-10-23,48,44,41,43,41,39,100,83,76,29.87,29.82,29.70,10,8,5,15,7,22,0.00,,Rain,181
2012-10-24,50,46,41,43,41,39,100,85,71,30.18,29.98,29.86,10,8,3,12,4,18,0.00,,Rain,187
2012-10-25,57,48,39,45,43,39,100,88,58,30.42,30.35,30.18,10,7,0,8,2,,0.02,,Fog-Rain,188
2012-10-26,53,47,41,48,45,41,100,92,82,30.32,30.16,30.10,10,7,0,16,4,25,0.00,,Fog-Rain,183
2012-10-27,57,52,48,57,50,46,100,94,82,30.10,29.97,29.82,10,6,2,13,9,21,0.08,,Rain,179
2012-10-28,59,56,53,57,55,52,100,95,88,29.98,29.92,29.79,10,9,2,9,4,,0.19,,Rain,195
2012-10-29,64,58,51,57,55,50,100,87,72,30.05,29.93,29.78,10,9,5,10,7,24,0.04,,Rain,207
2012-10-30,59,56,53,59,57,54,100,96,94,29.99,29.85,29.76,10,7,2,13,5,20,0.63,,Rain,187
2012-10-31,59,56,53,57,55,50,100,94,88,29.77,29.69,29.64,10,8,2,17,6,26,0.52,,Rain,182